Year,Month,Day,Hour,Minute,Value (Times are PST for temperature in C)
2021,06,09,00,00,10.60
2021,06,09,00,01,10.70
2021,06,09,00,02,10.60
2021,06,09,00,03,10.60
2021,06,09,00,04,10.60
2021,06,09,00,05,10.60
2021,06,09,00,06,10.60
2021,06,09,00,07,10.60
2021,06,09,00,08,10.60
2021,06,09,00,09,10.60
2021,06,09,00,10,10.60
2021,06,09,00,11,10.60
2021,06,09,00,12,10.60
2021,06,09,00,13,10.60
2021,06,09,00,14,10.60
2021,06,09,00,15,10.60
2021,06,09,00,16,10.60
2021,06,09,00,17,10.60
2021,06,09,00,18,10.60
2021,06,09,00,19,10.60
2021,06,09,00,20,10.60
2021,06,09,00,21,10.60
2021,06,09,00,22,10.60
2021,06,09,00,23,10.70
2021,06,09,00,24,10.70
2021,06,09,00,25,10.70
2021,06,09,00,26,10.80
2021,06,09,00,27,10.90
2021,06,09,00,28,11.00
2021,06,09,00,29,11.10
2021,06,09,00,30,11.10
2021,06,09,00,31,11.20
2021,06,09,00,32,11.20
2021,06,09,00,33,11.20
2021,06,09,00,34,11.30
2021,06,09,00,35,11.30
2021,06,09,00,36,11.40
2021,06,09,00,37,11.40
2021,06,09,00,38,11.50
2021,06,09,00,39,11.60
2021,06,09,00,40,11.60
2021,06,09,00,41,11.70
2021,06,09,00,42,11.80
2021,06,09,00,43,11.80
2021,06,09,00,44,11.80
2021,06,09,00,45,11.90
2021,06,09,00,46,11.90
2021,06,09,00,47,11.90
2021,06,09,00,48,11.90
2021,06,09,00,49,11.90
2021,06,09,00,50,11.90
2021,06,09,00,51,11.90
2021,06,09,00,52,12.00
2021,06,09,00,53,12.00
2021,06,09,00,54,12.00
2021,06,09,00,55,12.00
2021,06,09,00,56,12.00
2021,06,09,00,57,12.00
2021,06,09,00,58,11.90
2021,06,09,00,59,11.90
2021,06,09,01,00,11.90
2021,06,09,01,01,11.90
2021,06,09,01,02,11.90
2021,06,09,01,03,11.90
2021,06,09,01,04,11.90
2021,06,09,01,05,11.90
2021,06,09,01,06,11.90
2021,06,09,01,07,11.80
2021,06,09,01,08,11.80
2021,06,09,01,09,11.80
2021,06,09,01,10,11.80
2021,06,09,01,11,11.70
2021,06,09,01,12,11.70
2021,06,09,01,13,11.70
2021,06,09,01,14,11.70
2021,06,09,01,15,11.70
2021,06,09,01,16,11.60
2021,06,09,01,17,11.60
2021,06,09,01,18,11.60
2021,06,09,01,19,11.60
2021,06,09,01,20,11.60
2021,06,09,01,21,11.60
2021,06,09,01,22,11.60
2021,06,09,01,23,11.60
2021,06,09,01,24,11.60
2021,06,09,01,25,11.60
2021,06,09,01,26,11.60
2021,06,09,01,27,11.60
2021,06,09,01,28,11.60
2021,06,09,01,29,11.60
2021,06,09,01,30,11.70
2021,06,09,01,31,11.70
2021,06,09,01,32,11.70
2021,06,09,01,33,11.70
2021,06,09,01,34,11.70
2021,06,09,01,35,11.70
2021,06,09,01,36,11.80
2021,06,09,01,37,11.80
2021,06,09,01,38,11.80
2021,06,09,01,39,11.80
2021,06,09,01,40,11.80
2021,06,09,01,41,11.80
2021,06,09,01,42,11.80
2021,06,09,01,43,11.90
2021,06,09,01,44,11.90
2021,06,09,01,45,11.90
2021,06,09,01,46,11.90
2021,06,09,01,47,11.90
2021,06,09,01,48,11.90
2021,06,09,01,49,11.90
2021,06,09,01,50,11.90
2021,06,09,01,51,12.00
2021,06,09,01,52,11.90
2021,06,09,01,53,11.90
2021,06,09,01,54,11.90
2021,06,09,01,55,11.90
2021,06,09,01,56,11.90
2021,06,09,01,57,11.90
2021,06,09,01,58,11.90
2021,06,09,01,59,11.90
2021,06,09,02,00,11.80
2021,06,09,02,01,11.80
2021,06,09,02,02,11.80
2021,06,09,02,03,11.80
2021,06,09,02,04,11.80
2021,06,09,02,05,11.80
2021,06,09,02,06,11.80
2021,06,09,02,07,11.80
2021,06,09,02,08,11.80
2021,06,09,02,09,11.80
2021,06,09,02,10,11.70
2021,06,09,02,11,11.70
2021,06,09,02,12,11.70
2021,06,09,02,13,11.70
2021,06,09,02,14,11.70
2021,06,09,02,15,11.70
2021,06,09,02,16,11.70
2021,06,09,02,17,11.70
2021,06,09,02,18,11.70
2021,06,09,02,19,11.70
2021,06,09,02,20,11.70
2021,06,09,02,21,11.70
2021,06,09,02,22,11.70
2021,06,09,02,23,11.70
2021,06,09,02,24,11.60
2021,06,09,02,25,11.60
2021,06,09,02,26,11.60
2021,06,09,02,27,11.60
2021,06,09,02,28,11.60
2021,06,09,02,29,11.60
2021,06,09,02,30,11.60
2021,06,09,02,31,11.60
2021,06,09,02,32,11.60
2021,06,09,02,33,11.60
2021,06,09,02,34,11.60
2021,06,09,02,35,11.60
2021,06,09,02,36,11.60
2021,06,09,02,37,11.60
2021,06,09,02,38,11.60
2021,06,09,02,39,11.60
2021,06,09,02,40,11.60
2021,06,09,02,41,11.60
2021,06,09,02,42,11.70
2021,06,09,02,43,11.70
2021,06,09,02,44,11.70
2021,06,09,02,45,11.70
2021,06,09,02,46,11.70
2021,06,09,02,47,11.70
2021,06,09,02,48,11.70
2021,06,09,02,49,11.70
2021,06,09,02,50,11.70
2021,06,09,02,51,11.70
2021,06,09,02,52,11.70
2021,06,09,02,53,11.70
2021,06,09,02,54,11.70
2021,06,09,02,55,11.70
2021,06,09,02,56,11.70
2021,06,09,02,57,11.70
2021,06,09,02,58,11.70
2021,06,09,02,59,11.70
2021,06,09,03,00,11.70
2021,06,09,03,01,11.70
2021,06,09,03,02,11.70
2021,06,09,03,03,11.70
2021,06,09,03,04,11.70
2021,06,09,03,05,11.70
2021,06,09,03,06,11.70
2021,06,09,03,07,11.70
2021,06,09,03,08,11.70
2021,06,09,03,09,11.70
2021,06,09,03,10,11.70
2021,06,09,03,11,11.70
2021,06,09,03,12,11.70
2021,06,09,03,13,11.70
2021,06,09,03,14,11.60
2021,06,09,03,15,11.60
2021,06,09,03,16,11.60
2021,06,09,03,17,11.60
2021,06,09,03,18,11.50
2021,06,09,03,19,11.50
2021,06,09,03,20,11.40
2021,06,09,03,21,11.40
2021,06,09,03,22,11.40
2021,06,09,03,23,11.40
2021,06,09,03,24,11.40
2021,06,09,03,25,11.30
2021,06,09,03,26,11.30
2021,06,09,03,27,11.30
2021,06,09,03,28,11.30
2021,06,09,03,29,11.30
2021,06,09,03,30,11.30
2021,06,09,03,31,11.20
2021,06,09,03,32,11.20
2021,06,09,03,33,11.20
2021,06,09,03,34,11.20
2021,06,09,03,35,11.20
2021,06,09,03,36,11.10
2021,06,09,03,37,11.10
2021,06,09,03,38,11.10
2021,06,09,03,39,11.10
2021,06,09,03,40,11.10
2021,06,09,03,41,11.10
2021,06,09,03,42,11.10
2021,06,09,03,43,11.10
2021,06,09,03,44,11.10
2021,06,09,03,45,11.10
2021,06,09,03,46,11.10
2021,06,09,03,47,11.10
2021,06,09,03,48,11.10
2021,06,09,03,49,11.10
2021,06,09,03,50,11.10
2021,06,09,03,51,11.10
2021,06,09,03,52,11.20
2021,06,09,03,53,11.20
2021,06,09,03,54,11.20
2021,06,09,03,55,11.20
2021,06,09,03,56,11.20
2021,06,09,03,57,11.20
2021,06,09,03,58,11.20
2021,06,09,03,59,11.20
2021,06,09,04,00,11.20
2021,06,09,04,01,11.20
2021,06,09,04,02,11.20
2021,06,09,04,03,11.20
2021,06,09,04,04,11.20
2021,06,09,04,05,11.20
2021,06,09,04,06,11.20
2021,06,09,04,07,11.20
2021,06,09,04,08,11.20
2021,06,09,04,09,11.20
2021,06,09,04,10,11.10
2021,06,09,04,11,11.10
2021,06,09,04,12,11.10
2021,06,09,04,13,11.10
2021,06,09,04,14,11.00
2021,06,09,04,15,11.00
2021,06,09,04,16,11.00
2021,06,09,04,17,11.00
2021,06,09,04,18,11.00
2021,06,09,04,19,11.00
2021,06,09,04,20,10.90
2021,06,09,04,21,10.90
2021,06,09,04,22,10.90
2021,06,09,04,23,10.90
2021,06,09,04,24,10.80
2021,06,09,04,25,10.80
2021,06,09,04,26,10.80
2021,06,09,04,27,10.80
2021,06,09,04,28,10.70
2021,06,09,04,29,10.70
2021,06,09,04,30,10.70
2021,06,09,04,31,10.70
2021,06,09,04,32,10.60
2021,06,09,04,33,10.60
2021,06,09,04,34,10.60
2021,06,09,04,35,10.50
2021,06,09,04,36,10.50
2021,06,09,04,37,10.50
2021,06,09,04,38,10.40
2021,06,09,04,39,10.40
2021,06,09,04,40,10.40
2021,06,09,04,41,10.40
2021,06,09,04,42,10.40
2021,06,09,04,43,10.40
2021,06,09,04,44,10.30
2021,06,09,04,45,10.30
2021,06,09,04,46,10.30
2021,06,09,04,47,10.30
2021,06,09,04,48,10.30
2021,06,09,04,49,10.20
2021,06,09,04,50,10.20
2021,06,09,04,51,10.20
2021,06,09,04,52,10.20
2021,06,09,04,53,10.20
2021,06,09,04,54,10.20
2021,06,09,04,55,10.20
2021,06,09,04,56,10.20
2021,06,09,04,57,10.20
2021,06,09,04,58,10.20
2021,06,09,04,59,10.10
2021,06,09,05,00,10.10
2021,06,09,05,01,10.10
2021,06,09,05,02,10.10
2021,06,09,05,03,10.10
2021,06,09,05,04,10.10
2021,06,09,05,05,10.10
2021,06,09,05,06,10.00
2021,06,09,05,07,10.00
2021,06,09,05,08,10.00
2021,06,09,05,09,9.90
2021,06,09,05,10,9.90
2021,06,09,05,11,9.90
2021,06,09,05,12,9.90
2021,06,09,05,13,9.80
2021,06,09,05,14,9.80
2021,06,09,05,15,9.80
2021,06,09,05,16,9.80
2021,06,09,05,17,9.70
2021,06,09,05,18,9.70
2021,06,09,05,19,9.70
2021,06,09,05,20,9.70
2021,06,09,05,21,9.60
2021,06,09,05,22,9.60
2021,06,09,05,23,9.60
2021,06,09,05,24,9.60
2021,06,09,05,25,9.60
2021,06,09,05,26,9.50
2021,06,09,05,27,9.50
2021,06,09,05,28,9.50
2021,06,09,05,29,9.50
2021,06,09,05,30,9.50
2021,06,09,05,31,9.40
2021,06,09,05,32,9.50
2021,06,09,05,33,9.40
2021,06,09,05,34,9.40
2021,06,09,05,35,9.40
2021,06,09,05,36,9.40
2021,06,09,05,37,9.40
2021,06,09,05,38,9.30
2021,06,09,05,39,9.30
2021,06,09,05,40,9.30
2021,06,09,05,41,9.30
2021,06,09,05,42,9.30
2021,06,09,05,43,9.30
2021,06,09,05,44,9.30
2021,06,09,05,45,9.20
2021,06,09,05,46,9.20
2021,06,09,05,47,9.20
2021,06,09,05,48,9.20
2021,06,09,05,49,9.10
2021,06,09,05,50,9.10
2021,06,09,05,51,9.10
2021,06,09,05,52,9.00
2021,06,09,05,53,9.00
2021,06,09,05,54,9.00
2021,06,09,05,55,8.90
2021,06,09,05,56,8.90
2021,06,09,05,57,8.90
2021,06,09,05,58,8.90
2021,06,09,05,59,8.80
2021,06,09,06,00,8.80
2021,06,09,06,01,8.80
2021,06,09,06,02,8.80
2021,06,09,06,03,8.80
2021,06,09,06,04,8.80
2021,06,09,06,05,8.70
2021,06,09,06,06,8.70
2021,06,09,06,07,8.70
2021,06,09,06,08,8.70
2021,06,09,06,09,8.70
2021,06,09,06,10,8.70
2021,06,09,06,11,8.70
2021,06,09,06,12,8.70
2021,06,09,06,13,8.60
2021,06,09,06,14,8.60
2021,06,09,06,15,8.60
2021,06,09,06,16,8.60
2021,06,09,06,17,8.60
2021,06,09,06,18,8.60
2021,06,09,06,19,8.60
2021,06,09,06,20,8.60
2021,06,09,06,21,8.60
2021,06,09,06,22,8.60
2021,06,09,06,23,8.60
2021,06,09,06,24,8.60
2021,06,09,06,25,8.60
2021,06,09,06,26,8.60
2021,06,09,06,27,8.60
2021,06,09,06,28,8.60
2021,06,09,06,29,8.60
2021,06,09,06,30,8.60
2021,06,09,06,31,8.60
2021,06,09,06,32,8.60
2021,06,09,06,33,8.60
2021,06,09,06,34,8.60
2021,06,09,06,35,8.50
2021,06,09,06,36,8.50
2021,06,09,06,37,8.50
2021,06,09,06,38,8.50
2021,06,09,06,39,8.50
2021,06,09,06,40,8.50
2021,06,09,06,41,8.50
2021,06,09,06,42,8.50
2021,06,09,06,43,8.50
2021,06,09,06,44,8.50
2021,06,09,06,45,8.40
2021,06,09,06,46,8.40
2021,06,09,06,47,8.40
2021,06,09,06,48,8.40
2021,06,09,06,49,8.50
2021,06,09,06,50,8.50
2021,06,09,06,51,8.40
2021,06,09,06,52,8.50
2021,06,09,06,53,8.40
2021,06,09,06,54,8.50
2021,06,09,06,55,8.40
2021,06,09,06,56,8.40
2021,06,09,06,57,8.40
2021,06,09,06,58,8.40
2021,06,09,06,59,8.40
2021,06,09,07,00,8.50
2021,06,09,07,01,8.40
2021,06,09,07,02,8.50
2021,06,09,07,03,8.50
2021,06,09,07,04,8.50
2021,06,09,07,05,8.50
2021,06,09,07,06,8.50
2021,06,09,07,07,8.50
2021,06,09,07,08,8.60
2021,06,09,07,09,8.60
2021,06,09,07,10,8.70
2021,06,09,07,11,8.70
2021,06,09,07,12,8.70
2021,06,09,07,13,8.70
2021,06,09,07,14,8.80
2021,06,09,07,15,8.80
2021,06,09,07,16,8.90
2021,06,09,07,17,8.90
2021,06,09,07,18,9.00
2021,06,09,07,19,9.10
2021,06,09,07,20,9.10
2021,06,09,07,21,9.10
2021,06,09,07,22,9.20
2021,06,09,07,23,9.30
2021,06,09,07,24,9.30
2021,06,09,07,25,9.30
2021,06,09,07,26,9.40
2021,06,09,07,27,9.40
2021,06,09,07,28,9.50
2021,06,09,07,29,9.60
2021,06,09,07,30,9.60
2021,06,09,07,31,9.70
2021,06,09,07,32,9.80
2021,06,09,07,33,9.90
2021,06,09,07,34,9.90
2021,06,09,07,35,10.00
2021,06,09,07,36,10.10
2021,06,09,07,37,10.10
2021,06,09,07,38,10.20
2021,06,09,07,39,10.30
2021,06,09,07,40,10.30
2021,06,09,07,41,10.30
2021,06,09,07,42,10.40
2021,06,09,07,43,10.50
2021,06,09,07,44,10.50
2021,06,09,07,45,10.60
2021,06,09,07,46,10.70
2021,06,09,07,47,10.70
2021,06,09,07,48,10.80
2021,06,09,07,49,10.80
2021,06,09,07,50,10.90
2021,06,09,07,51,11.00
2021,06,09,07,52,11.00
2021,06,09,07,53,11.10
2021,06,09,07,54,11.10
2021,06,09,07,55,11.20
2021,06,09,07,56,11.20
2021,06,09,07,57,11.30
2021,06,09,07,58,11.30
2021,06,09,07,59,11.40
2021,06,09,08,00,11.40
2021,06,09,08,01,11.50
2021,06,09,08,02,11.50
2021,06,09,08,03,11.60
2021,06,09,08,04,11.60
2021,06,09,08,05,11.60
2021,06,09,08,06,11.70
2021,06,09,08,07,11.70
2021,06,09,08,08,11.70
2021,06,09,08,09,11.80
2021,06,09,08,10,11.80
2021,06,09,08,11,11.80
2021,06,09,08,12,11.90
2021,06,09,08,13,12.00
2021,06,09,08,14,12.00
2021,06,09,08,15,12.10
2021,06,09,08,16,12.10
2021,06,09,08,17,12.20
2021,06,09,08,18,12.20
2021,06,09,08,19,12.20
2021,06,09,08,20,12.20
2021,06,09,08,21,12.30
2021,06,09,08,22,12.30
2021,06,09,08,23,12.30
2021,06,09,08,24,12.40
2021,06,09,08,25,12.40
2021,06,09,08,26,12.40
2021,06,09,08,27,12.50
2021,06,09,08,28,12.50
2021,06,09,08,29,12.60
2021,06,09,08,30,12.60
2021,06,09,08,31,12.60
2021,06,09,08,32,12.70
2021,06,09,08,33,12.80
2021,06,09,08,34,12.80
2021,06,09,08,35,12.90
2021,06,09,08,36,13.00
2021,06,09,08,37,13.00
2021,06,09,08,38,13.10
2021,06,09,08,39,13.10
2021,06,09,08,40,13.20
2021,06,09,08,41,13.20
2021,06,09,08,42,13.30
2021,06,09,08,43,13.30
2021,06,09,08,44,13.40
2021,06,09,08,45,13.40
2021,06,09,08,46,13.40
2021,06,09,08,47,13.40
2021,06,09,08,48,13.40
2021,06,09,08,49,13.40
2021,06,09,08,50,13.40
2021,06,09,08,51,13.40
2021,06,09,08,52,13.50
2021,06,09,08,53,13.40
2021,06,09,08,54,13.40
2021,06,09,08,55,13.50
2021,06,09,08,56,13.50
2021,06,09,08,57,13.50
2021,06,09,08,58,13.50
2021,06,09,08,59,13.50
2021,06,09,09,00,13.60
2021,06,09,09,01,13.60
2021,06,09,09,02,13.70
2021,06,09,09,03,13.70
2021,06,09,09,04,13.80
2021,06,09,09,05,13.80
2021,06,09,09,06,13.90
2021,06,09,09,07,13.90
2021,06,09,09,08,13.90
2021,06,09,09,09,14.00
2021,06,09,09,10,14.10
2021,06,09,09,11,14.10
2021,06,09,09,12,14.10
2021,06,09,09,13,14.20
2021,06,09,09,14,14.20
2021,06,09,09,15,14.20
2021,06,09,09,16,14.30
2021,06,09,09,17,14.40
2021,06,09,09,18,14.50
2021,06,09,09,19,14.60
2021,06,09,09,20,14.70
2021,06,09,09,21,14.70
2021,06,09,09,22,14.80
2021,06,09,09,23,14.80
2021,06,09,09,24,14.80
2021,06,09,09,25,14.90
2021,06,09,09,26,15.00
2021,06,09,09,27,15.10
2021,06,09,09,28,15.10
2021,06,09,09,29,15.20
2021,06,09,09,30,15.20
2021,06,09,09,31,15.20
2021,06,09,09,32,15.20
2021,06,09,09,33,15.30
2021,06,09,09,34,15.30
2021,06,09,09,35,15.40
2021,06,09,09,36,15.40
2021,06,09,09,37,15.40
2021,06,09,09,38,15.40
2021,06,09,09,39,15.30
2021,06,09,09,40,15.30
2021,06,09,09,41,15.30
2021,06,09,09,42,15.30
2021,06,09,09,43,15.30
2021,06,09,09,44,15.30
2021,06,09,09,45,15.30
2021,06,09,09,46,15.30
2021,06,09,09,47,15.30
2021,06,09,09,48,15.30
2021,06,09,09,49,15.30
2021,06,09,09,50,15.40
2021,06,09,09,51,15.50
2021,06,09,09,52,15.60
2021,06,09,09,53,15.70
2021,06,09,09,54,15.70
2021,06,09,09,55,15.70
2021,06,09,09,56,15.80
2021,06,09,09,57,15.80
2021,06,09,09,58,15.90
2021,06,09,09,59,16.00
2021,06,09,10,00,16.00
2021,06,09,10,01,16.00
2021,06,09,10,02,15.90
2021,06,09,10,03,15.90
2021,06,09,10,04,15.90
2021,06,09,10,05,15.90
2021,06,09,10,06,15.90
2021,06,09,10,07,15.90
2021,06,09,10,08,16.00
2021,06,09,10,09,16.10
2021,06,09,10,10,16.10
2021,06,09,10,11,16.10
2021,06,09,10,12,16.10
2021,06,09,10,13,16.20
2021,06,09,10,14,16.20
2021,06,09,10,15,16.20
2021,06,09,10,16,16.30
2021,06,09,10,17,16.30
2021,06,09,10,18,16.30
2021,06,09,10,19,16.30
2021,06,09,10,20,16.40
2021,06,09,10,21,16.40
2021,06,09,10,22,16.40
2021,06,09,10,23,16.40
2021,06,09,10,24,16.50
2021,06,09,10,25,16.60
2021,06,09,10,26,16.60
2021,06,09,10,27,16.70
2021,06,09,10,28,16.70
2021,06,09,10,29,16.70
2021,06,09,10,30,16.70
2021,06,09,10,31,16.70
2021,06,09,10,32,16.70
2021,06,09,10,33,16.70
2021,06,09,10,34,16.70
2021,06,09,10,35,16.70
2021,06,09,10,36,16.60
2021,06,09,10,37,16.70
2021,06,09,10,38,16.60
2021,06,09,10,39,16.60
2021,06,09,10,40,16.70
2021,06,09,10,41,16.70
2021,06,09,10,42,16.80
2021,06,09,10,43,16.80
2021,06,09,10,44,16.90
2021,06,09,10,45,16.90
2021,06,09,10,46,16.90
2021,06,09,10,47,17.00
2021,06,09,10,48,17.00
2021,06,09,10,49,17.00
2021,06,09,10,50,17.10
2021,06,09,10,51,17.10
2021,06,09,10,52,17.10
2021,06,09,10,53,17.10
2021,06,09,10,54,17.10
2021,06,09,10,55,17.10
2021,06,09,10,56,17.10
2021,06,09,10,57,17.00
2021,06,09,10,58,17.10
2021,06,09,10,59,17.10
2021,06,09,11,00,17.00
2021,06,09,11,01,17.00
2021,06,09,11,02,17.00
2021,06,09,11,03,17.10
2021,06,09,11,04,17.10
2021,06,09,11,05,17.20
2021,06,09,11,06,17.20
2021,06,09,11,07,17.30
2021,06,09,11,08,17.30
2021,06,09,11,09,17.20
2021,06,09,11,10,17.10
2021,06,09,11,11,17.00
2021,06,09,11,12,16.90
2021,06,09,11,13,16.90
2021,06,09,11,14,16.90
2021,06,09,11,15,16.90
2021,06,09,11,16,16.90
2021,06,09,11,17,16.90
2021,06,09,11,18,16.80
2021,06,09,11,19,16.80
2021,06,09,11,20,16.80
2021,06,09,11,21,16.80
2021,06,09,11,22,16.90
2021,06,09,11,23,17.00
2021,06,09,11,24,17.00
2021,06,09,11,25,17.00
2021,06,09,11,26,17.00
2021,06,09,11,27,17.00
2021,06,09,11,28,17.00
2021,06,09,11,29,17.00
2021,06,09,11,30,17.00
2021,06,09,11,31,16.90
2021,06,09,11,32,16.90
2021,06,09,11,33,16.80
2021,06,09,11,34,16.70
2021,06,09,11,35,16.70
2021,06,09,11,36,16.70
2021,06,09,11,37,16.80
2021,06,09,11,38,16.80
2021,06,09,11,39,16.80
2021,06,09,11,40,16.80
2021,06,09,11,41,16.80
2021,06,09,11,42,16.80
2021,06,09,11,43,16.90
2021,06,09,11,44,16.90
2021,06,09,11,45,17.00
2021,06,09,11,46,17.00
2021,06,09,11,47,17.00
2021,06,09,11,48,17.00
2021,06,09,11,49,17.10
2021,06,09,11,50,17.10
2021,06,09,11,51,17.10
2021,06,09,11,52,17.10
2021,06,09,11,53,17.10
2021,06,09,11,54,17.20
2021,06,09,11,55,17.20
2021,06,09,11,56,17.20
2021,06,09,11,57,17.10
2021,06,09,11,58,17.10
2021,06,09,11,59,17.10
2021,06,09,12,00,17.00
2021,06,09,12,01,16.90
2021,06,09,12,02,16.80
2021,06,09,12,03,16.80
2021,06,09,12,04,16.80
2021,06,09,12,05,16.80
2021,06,09,12,06,16.70
2021,06,09,12,07,16.80
2021,06,09,12,08,16.80
2021,06,09,12,09,16.80
2021,06,09,12,10,16.80
2021,06,09,12,11,16.80
2021,06,09,12,12,16.90
2021,06,09,12,13,16.90
2021,06,09,12,14,16.90
2021,06,09,12,15,16.90
2021,06,09,12,16,17.00
2021,06,09,12,17,17.00
2021,06,09,12,18,17.00
2021,06,09,12,19,17.00
2021,06,09,12,20,17.00
2021,06,09,12,21,16.90
2021,06,09,12,22,16.80
2021,06,09,12,23,16.80
2021,06,09,12,24,16.70
2021,06,09,12,25,16.70
2021,06,09,12,26,16.70
2021,06,09,12,27,16.70
2021,06,09,12,28,16.70
2021,06,09,12,29,16.70
2021,06,09,12,30,16.70
2021,06,09,12,31,16.70
2021,06,09,12,32,16.80
2021,06,09,12,33,16.90
2021,06,09,12,34,16.90
2021,06,09,12,35,17.00
2021,06,09,12,36,17.10
2021,06,09,12,37,17.20
2021,06,09,12,38,17.20
2021,06,09,12,39,17.30
2021,06,09,12,40,17.30
2021,06,09,12,41,17.40
2021,06,09,12,42,17.50
2021,06,09,12,43,17.50
2021,06,09,12,44,17.50
2021,06,09,12,45,17.50
2021,06,09,12,46,17.50
2021,06,09,12,47,17.40
2021,06,09,12,48,17.40
2021,06,09,12,49,17.30
2021,06,09,12,50,17.30
2021,06,09,12,51,17.30
2021,06,09,12,52,17.30
2021,06,09,12,53,17.30
2021,06,09,12,54,17.20
2021,06,09,12,55,17.20
2021,06,09,12,56,17.20
2021,06,09,12,57,17.10
2021,06,09,12,58,17.10
2021,06,09,12,59,17.10
2021,06,09,13,00,17.00
2021,06,09,13,01,17.00
2021,06,09,13,02,16.90
2021,06,09,13,03,16.90
2021,06,09,13,04,16.90
2021,06,09,13,05,16.90
2021,06,09,13,06,16.90
2021,06,09,13,07,16.90
2021,06,09,13,08,16.90
2021,06,09,13,09,16.90
2021,06,09,13,10,16.90
2021,06,09,13,11,16.90
2021,06,09,13,12,17.00
2021,06,09,13,13,17.00
2021,06,09,13,14,17.10
2021,06,09,13,15,17.10
2021,06,09,13,16,17.10
2021,06,09,13,17,17.20
2021,06,09,13,18,17.20
2021,06,09,13,19,17.20
2021,06,09,13,20,17.20
2021,06,09,13,21,17.20
2021,06,09,13,22,17.20
2021,06,09,13,23,17.20
2021,06,09,13,24,17.20
2021,06,09,13,25,17.20
2021,06,09,13,26,17.20
2021,06,09,13,27,17.20
2021,06,09,13,28,17.20
2021,06,09,13,29,17.20
2021,06,09,13,30,17.20
2021,06,09,13,31,17.20
2021,06,09,13,32,17.20
2021,06,09,13,33,17.20
2021,06,09,13,34,17.20
2021,06,09,13,35,17.20
2021,06,09,13,36,17.20
2021,06,09,13,37,17.20
2021,06,09,13,38,17.20
2021,06,09,13,39,17.30
2021,06,09,13,40,17.30
2021,06,09,13,41,17.30
2021,06,09,13,42,17.40
2021,06,09,13,43,17.50
2021,06,09,13,44,17.60
2021,06,09,13,45,17.60
2021,06,09,13,46,17.70
2021,06,09,13,47,17.70
2021,06,09,13,48,17.80
2021,06,09,13,49,17.80
2021,06,09,13,50,17.80
2021,06,09,13,51,17.80
2021,06,09,13,52,17.80
2021,06,09,13,53,17.90
2021,06,09,13,54,17.90
2021,06,09,13,55,17.90
2021,06,09,13,56,17.90
2021,06,09,13,57,17.90
2021,06,09,13,58,17.90
2021,06,09,13,59,17.80
2021,06,09,14,00,17.80
2021,06,09,14,01,17.70
2021,06,09,14,02,17.60
2021,06,09,14,03,17.60
2021,06,09,14,04,17.50
2021,06,09,14,05,17.50
2021,06,09,14,06,17.50
2021,06,09,14,07,17.50
2021,06,09,14,08,17.50
2021,06,09,14,09,17.50
2021,06,09,14,10,17.40
2021,06,09,14,11,17.40
2021,06,09,14,12,17.40
2021,06,09,14,13,17.40
2021,06,09,14,14,17.50
2021,06,09,14,15,17.60
2021,06,09,14,16,17.70
2021,06,09,14,17,17.70
2021,06,09,14,18,17.70
2021,06,09,14,19,17.80
2021,06,09,14,20,17.80
2021,06,09,14,21,17.80
2021,06,09,14,22,17.90
2021,06,09,14,23,17.90
2021,06,09,14,24,17.90
2021,06,09,14,25,17.90
2021,06,09,14,26,17.80
2021,06,09,14,27,17.80
2021,06,09,14,28,17.70
2021,06,09,14,29,17.70
2021,06,09,14,30,17.70
2021,06,09,14,31,17.70
2021,06,09,14,32,17.70
2021,06,09,14,33,17.70
2021,06,09,14,34,17.70
2021,06,09,14,35,17.70
2021,06,09,14,36,17.70
2021,06,09,14,37,17.60
2021,06,09,14,38,17.60
2021,06,09,14,39,17.60
2021,06,09,14,40,17.60
2021,06,09,14,41,17.70
2021,06,09,14,42,17.80
2021,06,09,14,43,17.80
2021,06,09,14,44,17.80
2021,06,09,14,45,17.80
2021,06,09,14,46,17.80
2021,06,09,14,47,17.70
2021,06,09,14,48,17.80
2021,06,09,14,49,17.80
2021,06,09,14,50,17.80
2021,06,09,14,51,17.80
2021,06,09,14,52,17.90
2021,06,09,14,53,18.00
2021,06,09,14,54,18.10
2021,06,09,14,55,18.20
2021,06,09,14,56,18.30
2021,06,09,14,57,18.30
2021,06,09,14,58,18.30
2021,06,09,14,59,18.30
2021,06,09,15,00,18.30
2021,06,09,15,01,18.40
2021,06,09,15,02,18.40
2021,06,09,15,03,18.40
2021,06,09,15,04,18.40
2021,06,09,15,05,18.50
2021,06,09,15,06,18.50
2021,06,09,15,07,18.60
2021,06,09,15,08,18.60
2021,06,09,15,09,18.50
2021,06,09,15,10,18.40
2021,06,09,15,11,18.30
2021,06,09,15,12,18.20
2021,06,09,15,13,18.10
2021,06,09,15,14,18.00
2021,06,09,15,15,17.90
2021,06,09,15,16,17.90
2021,06,09,15,17,17.90
2021,06,09,15,18,17.90
2021,06,09,15,19,17.90
2021,06,09,15,20,17.90
2021,06,09,15,21,17.90
2021,06,09,15,22,17.80
2021,06,09,15,23,17.80
2021,06,09,15,24,17.70
2021,06,09,15,25,17.60
2021,06,09,15,26,17.50
2021,06,09,15,27,17.30
2021,06,09,15,28,17.20
2021,06,09,15,29,17.00
2021,06,09,15,30,16.90
2021,06,09,15,31,16.80
2021,06,09,15,32,16.70
2021,06,09,15,33,16.60
2021,06,09,15,34,16.60
2021,06,09,15,35,16.50
2021,06,09,15,36,16.50
2021,06,09,15,37,16.60
2021,06,09,15,38,16.70
2021,06,09,15,39,16.80
2021,06,09,15,40,16.90
2021,06,09,15,41,17.10
2021,06,09,15,42,17.20
2021,06,09,15,43,17.30
2021,06,09,15,44,17.50
2021,06,09,15,45,17.50
2021,06,09,15,46,17.60
2021,06,09,15,47,17.50
2021,06,09,15,48,17.50
2021,06,09,15,49,17.50
2021,06,09,15,50,17.50
2021,06,09,15,51,17.50
2021,06,09,15,52,17.40
2021,06,09,15,53,17.40
2021,06,09,15,54,17.40
2021,06,09,15,55,17.40
2021,06,09,15,56,17.40
2021,06,09,15,57,17.30
2021,06,09,15,58,17.30
2021,06,09,15,59,17.20
2021,06,09,16,00,17.10
2021,06,09,16,01,17.00
2021,06,09,16,02,16.90
2021,06,09,16,03,16.80
2021,06,09,16,04,16.70
2021,06,09,16,05,16.60
2021,06,09,16,06,16.50
2021,06,09,16,07,16.40
2021,06,09,16,08,16.40
2021,06,09,16,09,16.30
2021,06,09,16,10,16.30
2021,06,09,16,11,16.30
2021,06,09,16,12,16.30
2021,06,09,16,13,16.30
2021,06,09,16,14,16.40
2021,06,09,16,15,16.40
2021,06,09,16,16,16.40
2021,06,09,16,17,16.40
2021,06,09,16,18,16.40
2021,06,09,16,19,16.50
2021,06,09,16,20,16.50
2021,06,09,16,21,16.40
2021,06,09,16,22,16.50
2021,06,09,16,23,16.40
2021,06,09,16,24,16.40
2021,06,09,16,25,16.50
2021,06,09,16,26,16.50
2021,06,09,16,27,16.50
2021,06,09,16,28,16.60
2021,06,09,16,29,16.60
2021,06,09,16,30,16.70
2021,06,09,16,31,16.70
2021,06,09,16,32,16.70
2021,06,09,16,33,16.70
2021,06,09,16,34,16.70
2021,06,09,16,35,16.70
2021,06,09,16,36,16.70
2021,06,09,16,37,16.70
2021,06,09,16,38,16.70
2021,06,09,16,39,16.60
2021,06,09,16,40,16.60
2021,06,09,16,41,16.50
2021,06,09,16,42,16.40
2021,06,09,16,43,16.30
2021,06,09,16,44,16.30
2021,06,09,16,45,16.20
2021,06,09,16,46,16.10
2021,06,09,16,47,16.10
2021,06,09,16,48,16.00
2021,06,09,16,49,16.00
2021,06,09,16,50,15.90
2021,06,09,16,51,15.80
2021,06,09,16,52,15.80
2021,06,09,16,53,15.80
2021,06,09,16,54,15.80
2021,06,09,16,55,15.70
2021,06,09,16,56,15.70
2021,06,09,16,57,15.70
2021,06,09,16,58,15.70
2021,06,09,16,59,15.70
2021,06,09,17,00,15.70
2021,06,09,17,01,15.70
2021,06,09,17,02,15.70
2021,06,09,17,03,15.70
2021,06,09,17,04,15.70
2021,06,09,17,05,15.70
2021,06,09,17,06,15.70
2021,06,09,17,07,15.70
2021,06,09,17,08,15.70
2021,06,09,17,09,15.70
2021,06,09,17,10,15.60
2021,06,09,17,11,15.60
2021,06,09,17,12,15.60
2021,06,09,17,13,15.60
2021,06,09,17,14,15.50
2021,06,09,17,15,15.50
2021,06,09,17,16,15.50
2021,06,09,17,17,15.50
2021,06,09,17,18,15.40
2021,06,09,17,19,15.40
2021,06,09,17,20,15.40
2021,06,09,17,21,15.40
2021,06,09,17,22,15.40
2021,06,09,17,23,15.40
2021,06,09,17,24,15.40
2021,06,09,17,25,15.40